Wind_Speed
1 1 2 2 3 3 3 3 3 3 3 3 2 2 3 3 3 2 2 3 4 4 4 4 4 4 4 3 3 2 3 2 3 3 3 4 4 5 6 6 6 6 7
2 1 1 1 2 2 2 2 2 2 2 2 1 2 2 2 2 2 2 2 2 3 3 3 4 3 3 3 3 3 3 3 3 3 3 4 4 5 6 7 7 7 7
3 2 2 1 1 1 1 1 0 1 1 1 2 2 2 2 3 2 2 2 2 3 3 3 3 4 4 4 4 3 3 3 4 4 4 4 5 6 6 7 7 8 8
5 4 4 4 3 3 2 2 2 3 3 3 3 3 4 4 3 3 3 3 3 3 4 4 4 4 4 4 5 4 4 4 5 5 5 6 6 6 6 7 7 8 8
6 6 6 6 6 5 5 5 5 4 5 4 4 5 5 5 5 5 4 4 4 5 5 6 5 5 5 5 6 5 5 5 5 6 6 7 7 7 8 8 9 9 10
7 7 8 8 8 8 7 7 7 7 7 6 6 6 6 6 6 6 6 5 5 6 7 7 7 6 6 7 7 6 6 6 7 7 7 8 8 9 9 10 10 11 12
8 8 9 9 9 9 9 9 9 9 9 8 8 8 8 8 8 8 8 7 8 8 8 8 8 8 9 8 8 8 8 8 8 9 9 10 10 10 10 11 11 12 13
9 10 10 9 10 10 11 11 11 11 11 11 11 11 10 10 10 10 10 10 10 10 10 10 10 10 10 10 10 9 10 10 10 11 11 12 12 12 13 13 14 14 14
10 10 11 11 11 12 12 12 12 12 13 13 13 13 13 12 12 12 12 12 12 12 12 11 11 12 12 12 12 11 12 12 13 13 13 14 14 15 15 16 17 17 17
11 11 11 11 11 12 13 14 14 14 15 14 14 14 14 15 15 15 14 13 13 13 13 13 13 13 13 14 13 14 14 14 15 15 16 16 16 17 17 18 18 19 20
13 12 12 12 12 13 14 15 16 15 16 16 16 16 16 16 16 16 16 15 15 14 15 14 14 14 14 14 14 15 16 16 17 17 17 18 18 19 19 20 20 21 22
14 14 14 14 14 14 15 16 17 17 18 18 18 18 18 18 18 17 17 16 16 16 16 16 16 16 16 16 17 17 18 18 18 19 19 20 20 21 22 22 23 23 24
15 16 16 16 16 16 16 17 18 18 19 20 20 20 20 20 19 19 18 18 18 18 18 18 18 18 17 18 19 19 20 20 21 21 21 22 23 23 24 25 25 25 25
16 17 18 18 18 18 18 19 19 20 21 21 22 22 22 21 21 21 21 20 20 20 20 19 19 20 20 21 21 21 22 22 23 23 23 24 25 25 26 26 26 26 26
18 19 19 19 19 20 20 20 21 22 22 23 23 23 24 24 23 23 22 22 23 23 22 22 22 22 22 23 23 23 23 24 24 25 26 26 26 26 26 26 27 27 27
19 20 21 21 21 21 22 22 22 23 24 24 23 24 23 23 24 24 24 24 25 25 25 25 24 24 23 23 24 24 25 25 25 25 25 25 26 26 27 27 27 28 29
21 23 23 23 24 23 23 24 24 25 26 26 26 25 25 25 25 25 25 25 26 25 25 25 24 24 24 25 25 26 26 26 26 26 26 27 27 28 28 29 29 29 30
23 24 25 25 26 26 26 26 26 27 27 28 28 28 27 27 28 28 28 28 28 27 27 27 27 27 26 27 27 27 28 28 28 28 28 28 28 29 30 30 30 30 30
25 25 26 27 28 28 28 28 29 29 29 30 30 30 30 30 30 30 30 30 29 29 29 29 29 29 28 28 29 29 30 30 30 30 30 30 31 31 32 31 31 31 31
27 28 28 28 29 29 30 30 30 31 31 31 31 32 32 32 32 32 31 31 31 31 31 31 30 30 30 30 30 31 31 31 31 31 32 32 32 32 33 33 32 32 32
30 30 30 30 29 30 30 31 32 32 32 32 33 33 33 33 33 33 32 32 32 32 32 32 32 32 32 32 32 32 32 32 33 33 33 34 34 34 35 34 34 34 33
31 31 30 31 31 31 32 32 32 33 33 33 33 33 33 33 33 33 34 34 34 33 32 33 33 34 33 34 34 33 34 34 34 34 34 35 35 35 35 34 34 34 34
32 32 32 32 33 33 33 33 32 32 33 33 33 33 33 33 32 33 34 34 33 33 33 34 34 35 34 35 35 35 35 35 35 35 35 36 35 35 34 33 33 33 33
32 32 32 33 33 33 33 33 33 33 33 32 32 32 32 33 32 31 32 33 33 33 34 34 34 35 35 35 35 36 35 35 35 35 36 36 35 35 34 33 33 33 32
34 33 34 34 35 34 34 35 34 34 34 33 33 33 33 33 33 33 32 33 34 34 34 35 35 35 35 34 35 35 35 35 35 36 36 36 35 33 32 32 33 33 33
34 34 35 35 35 35 35 35 35 35 34 34 33 34 34 33 33 33 34 34 34 34 34 34 34 34 34 34 34 34 35 35 35 36 35 35 34 33 34 34 34 34 34
Wind_Direction
357 41 59 76 81 77 79 81 82 79 80 77 73 62 46 48 47 53 53 47 49 54 63 60 49 46 47 40 35 19 7 333 310 308 312 298 298 301 302 300 301 304 307
292 312 18 57 73 70 65 75 76 66 59 52 28 15 10 17 24 21 25 27 27 27 35 39 32 22 17 14 10 20 18 351 339 323 305 312 305 305 305 301 301 301 303
266 269 276 295 306 328 11 10 359 349 353 342 336 332 333 340 343 331 325 334 347 356 352 359 4 0 356 346 338 340 337 326 328 328 317 314 308 308 307 305 302 302 305
257 262 265 268 273 280 280 285 291 296 301 301 302 310 321 323 322 314 314 312 317 326 327 323 330 334 332 328 326 320 320 314 315 315 318 321 320 313 304 308 307 306 307
250 258 265 263 264 269 275 279 288 288 292 292 296 300 308 319 325 314 303 295 301 308 309 307 308 316 317 319 320 318 314 313 311 309 309 314 317 317 312 311 311 308 309
254 261 265 264 263 264 271 277 280 281 283 285 289 293 302 311 315 316 301 290 292 295 298 299 299 298 300 302 303 303 308 309 306 304 306 309 310 310 308 306 308 311 309
253 258 264 268 266 265 268 274 275 277 278 281 284 287 295 302 304 304 298 290 290 292 295 296 293 290 291 292 294 296 299 302 304 306 307 307 306 300 299 301 303 306 307
255 259 265 269 269 268 267 269 272 272 273 277 280 284 289 292 296 297 295 290 286 288 291 290 288 288 288 288 290 293 294 299 302 304 304 304 303 301 298 298 298 300 302
260 263 262 263 265 269 269 271 268 268 272 276 279 282 283 286 290 293 292 290 288 289 287 287 287 286 287 286 286 288 292 295 298 299 300 299 297 297 298 298 298 299 301
261 262 262 261 263 268 271 271 270 272 275 278 279 281 282 284 287 287 287 288 286 287 288 285 285 284 285 286 284 284 287 290 291 292 293 294 293 293 296 297 298 300 300
261 264 263 265 268 269 269 268 270 273 277 281 282 284 285 286 287 287 286 286 286 285 286 286 286 286 286 285 284 284 286 288 289 290 290 291 292 292 292 294 297 299 300
263 264 266 269 271 270 268 268 268 272 276 278 280 281 283 285 286 287 286 286 286 285 285 286 286 286 286 284 282 282 283 285 286 288 290 290 291 292 292 293 294 295 297
263 264 264 268 271 271 270 270 272 274 276 280 280 280 282 284 285 286 285 285 285 284 284 284 284 284 284 284 282 281 282 283 285 286 288 289 290 291 291 292 292 293 294
262 263 264 266 271 272 270 271 273 275 277 279 280 281 282 281 282 283 282 282 282 283 284 283 283 282 281 281 282 282 283 283 285 285 286 288 289 291 290 291 291 293 294
263 264 266 269 272 273 273 273 273 274 275 277 278 279 279 279 280 280 279 280 281 282 283 283 284 283 281 281 281 282 283 283 284 285 285 285 288 290 291 292 292 292 293
262 264 267 270 272 274 274 275 275 274 274 275 276 277 278 278 278 277 277 278 280 281 281 282 282 283 283 284 283 283 282 284 285 286 285 286 289 291 292 292 292 293 293
265 266 267 268 269 272 274 276 277 276 275 274 275 276 276 278 278 278 278 278 279 280 280 281 281 282 283 284 284 285 285 285 287 288 287 287 288 290 291 292 292 291 291
266 268 268 268 269 270 273 275 276 277 277 276 275 275 275 276 277 277 278 278 278 278 279 280 280 280 281 282 282 283 283 284 285 286 286 286 286 288 290 291 292 291 291
265 269 270 271 270 271 272 274 277 278 278 278 277 275 274 275 275 276 277 278 278 278 278 279 279 279 280 281 281 282 282 283 284 284 285 285 286 287 288 290 292 292 292
266 268 270 271 271 272 272 274 276 277 277 278 278 278 276 274 274 275 277 277 277 277 277 277 278 278 278 279 280 281 282 282 283 285 286 287 287 287 287 288 290 291 291
268 270 271 271 272 273 274 275 276 276 277 277 277 278 278 278 277 276 277 278 277 276 276 277 277 277 277 278 279 280 281 281 282 283 285 286 287 287 287 288 290 290 289
268 271 272 272 272 274 275 275 276 276 276 277 277 278 277 277 278 277 278 279 279 277 277 277 277 276 277 278 279 280 281 281 282 283 284 285 286 288 288 288 289 289 289
265 267 270 271 272 273 274 275 275 276 277 277 277 277 277 276 277 279 279 280 278 277 278 279 279 279 278 279 279 280 281 282 283 284 285 285 286 286 287 288 288 289 289
265 267 269 271 271 272 274 274 276 277 278 277 277 278 277 277 278 279 278 279 279 279 280 281 280 280 279 278 279 280 280 281 283 284 285 285 284 285 286 286 287 288 288
267 268 271 272 271 271 273 273 275 276 276 277 278 279 279 279 279 279 279 279 280 280 280 280 281 281 279 278 278 279 279 281 282 283 284 284 283 284 285 286 286 287 287
269 269 271 272 272 271 272 273 274 274 274 275 277 279 279 279 282 282 281 281 280 279 279 280 280 280 281 281 280 281 281 282 282 282 281 281 282 283 284 284 285 285 286
Height
5912 5912 5911 5910 5909 5908 5907 5907 5906 5906 5905 5905 5904 5904 5903 5902 5901 5900 5899 5899 5898 5896 5896 5895 5895 5894 5893 5892 5891 5891 5890 5889 5889 5888 5888 5887 5887 5886 5886 5885 5884 5883 5882
5913 5912 5912 5911 5910 5909 5908 5908 5907 5907 5906 5905 5905 5904 5903 5902 5902 5901 5900 5899 5898 5897 5896 5896 5895 5894 5893 5892 5892 5891 5890 5889 5888 5888 5887 5887 5887 5885 5884 5884 5883 5882 5881
5913 5912 5912 5911 5910 5910 5909 5909 5908 5907 5907 5906 5905 5904 5903 5903 5902 5901 5900 5899 5898 5897 5897 5896 5895 5894 5893 5892 5891 5890 5889 5889 5888 5887 5887 5886 5885 5884 5883 5882 5881 5880 5879
5912 5912 5911 5911 5910 5910 5910 5909 5908 5907 5907 5906 5905 5904 5904 5903 5901 5900 5899 5899 5898 5897 5896 5895 5895 5894 5892 5892 5890 5890 5889 5888 5887 5886 5885 5885 5884 5883 5882 5881 5879 5878 5877
5911 5911 5910 5910 5910 5909 5909 5909 5908 5907 5906 5906 5905 5904 5903 5902 5901 5900 5899 5898 5897 5896 5896 5895 5894 5893 5891 5891 5889 5888 5887 5887 5886 5885 5884 5883 5882 5881 5880 5879 5878 5877 5875
5910 5909 5909 5909 5908 5908 5908 5907 5907 5906 5906 5905 5904 5903 5902 5902 5901 5899 5898 5897 5896 5895 5894 5893 5892 5891 5890 5889 5888 5887 5886 5885 5884 5883 5883 5882 5881 5879 5878 5877 5876 5874 5873
5908 5908 5907 5907 5907 5906 5906 5906 5905 5905 5904 5903 5903 5902 5901 5900 5899 5898 5897 5896 5895 5894 5893 5891 5890 5889 5889 5888 5887 5886 5885 5883 5882 5881 5880 5880 5878 5877 5876 5875 5873 5872 5870
5906 5906 5905 5905 5904 5904 5904 5904 5904 5903 5902 5902 5901 5900 5899 5898 5898 5897 5895 5894 5893 5892 5891 5890 5888 5887 5886 5885 5884 5884 5882 5881 5880 5879 5878 5877 5876 5875 5873 5872 5871 5869 5868
5904 5903 5903 5903 5902 5902 5902 5902 5901 5901 5900 5899 5898 5897 5897 5896 5895 5894 5893 5891 5891 5890 5889 5887 5886 5885 5884 5883 5882 5881 5880 5879 5878 5877 5876 5874 5873 5872 5870 5869 5867 5866 5864
5901 5900 5900 5900 5900 5899 5899 5899 5899 5898 5898 5897 5896 5895 5894 5893 5892 5891 5889 5888 5887 5886 5885 5884 5883 5882 5881 5880 5879 5878 5877 5876 5875 5873 5872 5871 5870 5868 5867 5865 5863 5861 5860
5898 5897 5897 5897 5897 5896 5896 5896 5895 5895 5895 5894 5893 5892 5891 5889 5888 5887 5886 5885 5884 5883 5882 5880 5879 5878 5877 5876 5875 5874 5873 5871 5870 5869 5868 5867 5865 5864 5862 5861 5859 5856 5854
5894 5893 5893 5893 5893 5893 5892 5892 5892 5892 5891 5891 5890 5889 5887 5886 5885 5883 5882 5881 5880 5879 5878 5876 5875 5874 5873 5872 5870 5869 5868 5867 5866 5864 5863 5862 5860 5859 5857 5855 5853 5851 5849
5890 5890 5889 5889 5889 5889 5888 5888 5888 5887 5887 5886 5885 5884 5883 5882 5880 5879 5878 5877 5876 5875 5873 5872 5870 5869 5868 5867 5865 5864 5863 5862 5860 5859 5858 5856 5854 5853 5851 5849 5847 5845 5843
5885 5885 5885 5885 5885 5884 5884 5883 5883 5882 5882 5881 5880 5879 5878 5877 5875 5874 5873 5872 5871 5870 5868 5867 5865 5864 5863 5861 5860 5859 5857 5856 5854 5853 5851 5850 5848 5846 5844 5842 5840 5838 5836
5881 5881 5881 5880 5880 5879 5878 5878 5877 5877 5876 5875 5875 5873 5872 5871 5870 5868 5867 5866 5865 5864 5863 5861 5859 5858 5856 5855 5854 5852 5851 5849 5848 5846 5845 5843 5841 5839 5837 5835 5833 5831 5829
5876 5876 5875 5875 5875 5874 5873 5872 5872 5871 5870 5869 5868 5867 5866 5865 5864 5862 5861 5860 5859 5858 5856 5855 5853 5851 5850 5849 5847 5845 5844 5842 5841 5839 5837 5836 5834 5832 5830 5828 5826 5824 5822
5870 5870 5870 5869 5869 5868 5867 5866 5866 5865 5864 5863 5862 5860 5859 5858 5857 5856 5855 5853 5852 5851 5849 5848 5846 5845 5843 5842 5840 5838 5837 5835 5834 5832 5830 5829 5827 5825 5823 5821 5819 5816 5814
5863 5863 5863 5862 5862 5861 5860 5860 5859 5858 5857 5855 5854 5853 5852 5851 5850 5849 5847 5846 5845 5843 5842 5840 5839 5837 5836 5835 5833 5831 5829 5828 5826 5824 5823 5821 5820 5818 5815 5813 5811 5808 5806
5856 5856 5855 5854 5854 5853 5853 5852 5851 5850 5849 5847 5846 5845 5844 5843 5841 5840 5839 5838 5836 5835 5834 5832 5831 5829 5828 5827 5825 5823 5821 5820 5818 5816 5815 5813 5811 5809 5807 5805 5802 5800 5797
5848 5847 5847 5846 5846 5845 5844 5844 5843 5842 5840 5839 5837 5836 5834 5833 5832 5831 5830 5828 5827 5826 5825 5823 5822 5821 5820 5818 5816 5814 5813 5811 5810 5808 5806 5804 5802 5800 5798 5795 5793 5791 5789
5839 5839 5838 5838 5837 5836 5836 5835 5834 5832 5831 5829 5828 5826 5824 5823 5822 5821 5819 5818 5817 5816 5815 5814 5813 5812 5810 5809 5807 5805 5804 5802 5800 5799 5797 5795 5793 5791 5789 5786 5784 5782 5780
5830 5830 5829 5829 5828 5828 5827 5826 5825 5823 5821 5820 5819 5817 5815 5814 5812 5811 5810 5809 5807 5806 5805 5804 5803 5801 5800 5799 5798 5796 5794 5792 5791 5789 5787 5785 5783 5781 5779 5777 5775 5772 5770
5821 5821 5820 5819 5819 5818 5817 5816 5815 5814 5812 5810 5809 5807 5806 5804 5803 5801 5800 5799 5797 5796 5795 5794 5792 5791 5790 5788 5787 5786 5784 5782 5781 5779 5777 5775 5774 5771 5769 5767 5765 5762 5760
5811 5811 5810 5810 5809 5808 5807 5806 5805 5804 5803 5801 5799 5797 5796 5795 5793 5792 5791 5789 5788 5786 5785 5783 5782 5780 5779 5778 5776 5775 5773 5772 5770 5768 5767 5765 5763 5761 5760 5758 5756 5753 5751
5802 5801 5801 5800 5799 5798 5797 5796 5795 5794 5793 5792 5790 5788 5787 5786 5784 5783 5781 5780 5778 5776 5775 5773 5771 5770 5769 5767 5765 5764 5762 5761 5759 5758 5756 5754 5753 5751 5750 5748 5746 5744 5742
5791 5791 5790 5790 5789 5788 5787 5786 5785 5784 5783 5782 5780 5779 5777 5776 5774 5773 5771 5769 5767 5766 5764 5763 5761 5759 5758 5756 5755 5753 5752 5750 5748 5746 5745 5744 5742 5741 5739 5737 5736 5734 5732